Location: Anmer
(52.8333°N, 0.5833°E)
Time: 20:33:45
(UTC+00:00)

Cosmos-2242 - Pass Details

Date: 15 May 2026
Orbit: 565 x 588 km, 82.5° (Epoch: 8 June)

Event Time Altitude Azimuth Distance (km) Brightness Sun altitude
Exits shadow 23:14:02 16° 231° (SW) 1,507 4.8 -17.6°
Maximum altitude 23:16:46 34° 289° (WNW) 947 4.2 -17.7°
Drops below altitude 10° 23:20:34 10° 356° (N) 1,877 6.8 -17.7°
Sets 23:22:55 0° 6° (N) 2,778 7.9 -17.8°
